| time (UTC) | temp F | wind direction | speed knots | gust knots | rain 1hr in | rain 24hr in | rain mn in | humidity % | barometer mb |
| 20260906124535 | 75 | 0 | 0.0 | 8.7 | 0.00 | 0.08 | 0.00 | 90 | 1013.5 |
| 20260906123613 | 75 | 0 | 0.0 | 3.5 | 0.00 | 0.08 | 0.00 | 90 | 1013.4 |
| 20260906122714 | 75 | 0 | 0.0 | 0.0 | 0.00 | 0.08 | 0.00 | 90 | 1013.4 |
| 20260906121814 | 74 | 0 | 0.0 | 3.5 | 0.00 | 0.08 | 0.00 | 91 | 1013.4 |
| 20260906120914 | 74 | 0 | 0.0 | 0.0 | 0.00 | 0.08 | 0.00 | 91 | 1013.4 |
| 20260906120013 | 74 | 0 | 0.0 | 0.0 | 0.00 | 0.08 | 0.00 | 91 | 1013.3 |
| 20260906115413 | 74 | 0 | 0.0 | 1.7 | 0.00 | 0.08 | 0.00 | 91 | 1013.3 |
| 20260906114513 | 74 | 0 | 0.0 | 1.7 | 0.00 | 0.08 | 0.00 | 91 | 1013.1 |
| 20260906113614 | 74 | 0 | 0.0 | 3.5 | 0.00 | 0.08 | 0.00 | 92 | 1013.1 |
| 20260906112713 | 74 | 0 | 0.0 | 5.2 | 0.00 | 0.08 | 0.00 | 92 | 1013.0 |
| 20260906111813 | 74 | 58 | 2.6 | 8.7 | 0.00 | 0.08 | 0.00 | 93 | 1012.9 |
| 20260906110914 | 74 | 0 | 0.0 | 3.5 | 0.00 | 0.08 | 0.00 | 93 | 1012.8 |
| 20260906110014 | 74 | 0 | 0.0 | 1.7 | 0.00 | 0.08 | 0.00 | 93 | 1012.6 |
| 20260906105414 | 74 | 0 | 0.0 | 3.5 | 0.00 | 0.08 | 0.00 | 93 | 1012.7 |
| 20260906104513 | 73 | 0 | 0.0 | 1.7 | 0.00 | 0.08 | 0.00 | 93 | 1012.6 |
| 20260906103614 | 73 | 0 | 0.0 | 3.5 | 0.00 | 0.08 | 0.00 | 93 | 1012.4 |
| 20260906102713 | 73 | 0 | 0.0 | 1.7 | 0.00 | 0.08 | 0.00 | 94 | 1012.3 |
| 20260906101813 | 73 | 0 | 0.0 | 1.7 | 0.00 | 0.08 | 0.00 | 94 | 1012.3 |
| 20260906100914 | 73 | 0 | 0.0 | 3.5 | 0.00 | 0.08 | 0.00 | 94 | 1012.3 |
| 20260906100013 | 73 | 0 | 0.0 | 3.5 | 0.00 | 0.08 | 0.00 | 94 | 1012.1 |
| 20260906095413 | 73 | 0 | 0.0 | 3.5 | 0.00 | 0.08 | 0.00 | 94 | 1012.0 |
| 20260906094513 | 73 | 0 | 0.0 | 1.7 | 0.00 | 0.08 | 0.00 | 94 | 1011.7 |
| 20260906093635 | 73 | 0 | 0.0 | 3.5 | 0.00 | 0.08 | 0.00 | 94 | 1011.7 |
| 20260906092713 | 73 | 0 | 0.0 | 7.0 | 0.00 | 0.08 | 0.00 | 94 | 1011.5 |
| 20260906091813 | 73 | 0 | 0.0 | 3.5 | 0.00 | 0.08 | 0.00 | 95 | 1011.6 |
| 20260906090913 | 73 | 0 | 0.0 | 1.7 | 0.00 | 0.08 | 0.00 | 95 | 1011.4 |
| 20260906090013 | 73 | 0 | 0.0 | 1.7 | 0.00 | 0.08 | 0.00 | 95 | 1011.4 |
| 20260906085413 | 73 | 0 | 0.0 | 1.7 | 0.00 | 0.08 | 0.00 | 95 | 1011.4 |
| 20260906084513 | 73 | 0 | 0.0 | 1.7 | 0.00 | 0.08 | 0.00 | 95 | 1011.2 |
| 20260906083613 | 73 | 0 | 0.0 | 5.2 | 0.00 | 0.08 | 0.00 | 95 | 1011.2 |
| 20260906082713 | 73 | 0 | 0.0 | 1.7 | 0.00 | 0.08 | 0.00 | 95 | 1011.3 |
| 20260906081813 | 73 | 0 | 0.0 | 1.7 | 0.00 | 0.08 | 0.00 | 96 | 1011.2 |
| 20260906080914 | 72 | 0 | 0.0 | 3.5 | 0.00 | 0.08 | 0.00 | 96 | 1011.1 |
| 20260906080013 | 72 | 0 | 0.0 | 0.0 | 0.00 | 0.08 | 0.00 | 96 | 1011.1 |
| 20260906075413 | 72 | 0 | 0.0 | 0.0 | 0.00 | 0.08 | 0.00 | 95 | 1010.9 |
| 20260906074513 | 72 | 0 | 0.0 | 0.0 | 0.00 | 0.08 | 0.00 | 95 | 1010.8 |
| 20260906073613 | 72 | 0 | 0.0 | 0.0 | 0.00 | 0.08 | 0.00 | 95 | 1010.7 |
| 20260906072713 | 72 | 0 | 0.0 | 0.0 | 0.00 | 0.08 | 0.00 | 95 | 1010.6 |
| 20260906071813 | 72 | 0 | 0.0 | 0.0 | 0.00 | 0.08 | 0.00 | 95 | 1010.6 |
| 20260906070913 | 72 | 0 | 0.0 | 0.0 | 0.00 | 0.08 | 0.00 | 95 | 1010.8 |
| 20260906070034 | 72 | 0 | 0.0 | 0.0 | 0.00 | 0.08 | 0.00 | 95 | 1010.8 |
| 20260906065413 | 72 | 0 | 0.0 | 0.0 | 0.00 | 0.08 | 0.00 | 95 | 1010.8 |
| 20260906064513 | 72 | 0 | 0.0 | 0.0 | 0.00 | 0.08 | 0.00 | 95 | 1010.9 |
| 20260906063634 | 72 | 0 | 0.0 | 0.0 | 0.00 | 0.08 | 0.00 | 95 | 1010.9 |
| 20260906062713 | 72 | 0 | 0.0 | 0.0 | 0.00 | 0.08 | 0.00 | 95 | 1010.9 |
| 20260906061813 | 72 | 0 | 0.0 | 0.0 | 0.00 | 0.08 | 0.00 | 95 | 1011.0 |
| 20260906060913 | 73 | 0 | 0.0 | 0.0 | 0.00 | 0.08 | 0.00 | 94 | 1011.0 |
| 20260906060013 | 73 | 0 | 0.0 | 0.0 | 0.00 | 0.08 | 0.00 | 94 | 1011.1 |
| 20260906055413 | 73 | 0 | 0.0 | 0.0 | 0.00 | 0.08 | 0.00 | 94 | 1011.2 |
| 20260906054513 | 73 | 0 | 0.0 | 0.0 | 0.00 | 0.08 | 0.00 | 94 | 1011.5 |
| 20260906053613 | 73 | 0 | 0.0 | 0.0 | 0.00 | 0.08 | 0.00 | 94 | 1011.5 |
| 20260906052713 | 73 | 0 | 0.0 | 0.0 | 0.00 | 0.08 | 0.00 | 94 | 1011.5 |
| 20260906051813 | 74 | 0 | 0.0 | 0.0 | 0.00 | 0.08 | 0.00 | 94 | 1011.6 |
| 20260906050913 | 74 | 0 | 0.0 | 0.0 | 0.00 | 0.08 | 0.00 | 94 | 1011.7 |
| 20260906050013 | 74 | 0 | 0.0 | 0.0 | 0.00 | 0.08 | 0.00 | 94 | 1011.8 |
| 20260906045434 | 74 | 0 | 0.0 | 0.0 | 0.00 | 0.08 | 0.00 | 94 | 1011.7 |
| 20260906044534 | 74 | 0 | 0.0 | 0.0 | 0.00 | 0.08 | 0.00 | 94 | 1011.9 |
| 20260906043613 | 74 | 0 | 0.0 | 0.0 | 0.00 | 0.08 | 0.00 | 94 | 1011.9 |
| 20260906042734 | 74 | 0 | 0.0 | 0.0 | 0.00 | 0.08 | 0.00 | 94 | 1011.9 |
| 20260906041813 | 74 | 0 | 0.0 | 0.0 | 0.00 | 0.08 | 0.00 | 94 | 1012.0 |
| 20260906040934 | 74 | 0 | 0.0 | 0.0 | 0.00 | 0.08 | 0.00 | 94 | 1012.0 |
| 20260906040013 | 74 | 0 | 0.0 | 0.0 | 0.00 | 0.08 | 0.00 | 93 | 1012.0 |
| 20260906035413 | 74 | 0 | 0.0 | 0.0 | 0.00 | 0.08 | 0.08 | 93 | 1012.0 |
| 20260906034513 | 74 | 0 | 0.0 | 0.0 | 0.00 | 0.08 | 0.08 | 93 | 1012.0 |
| 20260906033613 | 75 | 0 | 0.0 | 0.0 | 0.00 | 0.08 | 0.08 | 93 | 1012.0 |
| 20260906032713 | 75 | 0 | 0.0 | 0.0 | 0.00 | 0.08 | 0.08 | 93 | 1012.0 |
| 20260906031813 | 75 | 0 | 0.0 | 0.0 | 0.00 | 0.08 | 0.08 | 93 | 1011.8 |
| 20260906030934 | 75 | 0 | 0.0 | 1.7 | 0.00 | 0.08 | 0.08 | 94 | 1011.9 |
| 20260906030013 | 75 | 0 | 0.0 | 1.7 | 0.00 | 0.08 | 0.08 | 94 | 1011.8 |
| 20260906025413 | 75 | 0 | 0.0 | 0.0 | 0.00 | 0.08 | 0.08 | 94 | 1011.8 |
| 20260906024513 | 75 | 0 | 0.0 | 0.0 | 0.00 | 0.08 | 0.08 | 94 | 1011.7 |
| 20260906023613 | 75 | 0 | 0.0 | 0.0 | 0.00 | 0.08 | 0.08 | 94 | 1011.8 |
| 20260906022734 | 75 | 0 | 0.0 | 0.0 | 0.00 | 0.08 | 0.08 | 94 | 1011.7 |
| 20260906021813 | 75 | 0 | 0.0 | 0.0 | 0.00 | 0.08 | 0.08 | 94 | 1011.7 |
| 20260906020913 | 75 | 0 | 0.0 | 1.7 | 0.00 | 0.08 | 0.08 | 94 | 1011.6 |
| 20260906020013 | 75 | 0 | 0.0 | 1.7 | 0.00 | 0.08 | 0.08 | 94 | 1011.7 |
| 20260906015413 | 75 | 0 | 0.0 | 0.0 | 0.00 | 0.08 | 0.08 | 94 | 1011.7 |
| 20260906014513 | 75 | 0 | 0.0 | 0.0 | 0.00 | 0.08 | 0.08 | 94 | 1011.7 |
| 20260906013613 | 75 | 0 | 0.0 | 0.0 | 0.00 | 0.08 | 0.08 | 94 | 1011.6 |
| 20260906012713 | 75 | 0 | 0.0 | 0.0 | 0.00 | 0.08 | 0.08 | 94 | 1011.5 |
| 20260906011813 | 75 | 0 | 0.0 | 0.0 | 0.00 | 0.08 | 0.08 | 94 | 1011.5 |
| 20260906010913 | 75 | 0 | 0.0 | 0.0 | 0.00 | 0.08 | 0.08 | 94 | 1011.5 |
| 20260906010034 | 75 | 0 | 0.0 | 0.0 | 0.00 | 0.08 | 0.08 | 93 | 1011.4 |
| 20260906005434 | 76 | 0 | 0.0 | 0.0 | 0.00 | 0.08 | 0.08 | 93 | 1011.3 |
| 20260906004534 | 76 | 0 | 0.0 | 0.0 | 0.00 | 0.08 | 0.08 | 93 | 1011.3 |
| 20260906003613 | 76 | 0 | 0.0 | 0.0 | 0.00 | 0.08 | 0.08 | 93 | 1011.2 |
| 20260906002734 | 76 | 0 | 0.0 | 0.0 | 0.00 | 0.08 | 0.08 | 93 | 1011.2 |
| 20260906001813 | 76 | 0 | 0.0 | 0.0 | 0.00 | 0.08 | 0.08 | 92 | 1011.0 |
| 20260906000913 | 76 | 0 | 0.0 | 0.0 | 0.00 | 0.08 | 0.08 | 92 | 1011.0 |
| 20260906000013 | 76 | 0 | 0.0 | 0.0 | 0.00 | 0.08 | 0.08 | 92 | 1010.9 |
| 20260905235413 | 76 | 0 | 0.0 | 0.0 | 0.00 | 0.08 | 0.08 | 92 | 1010.7 |
| 20260905234513 | 77 | 0 | 0.0 | 0.0 | 0.00 | 0.08 | 0.08 | 92 | 1010.7 |
| 20260905233613 | 77 | 0 | 0.0 | 0.0 | 0.00 | 0.08 | 0.08 | 92 | 1010.4 |
| 20260905232713 | 77 | 0 | 0.0 | 0.0 | 0.00 | 0.08 | 0.08 | 91 | 1010.3 |
| 20260905231834 | 77 | 0 | 0.0 | 0.0 | 0.00 | 0.08 | 0.08 | 91 | 1010.2 |
| 20260905230913 | 77 | 0 | 0.0 | 0.0 | 0.00 | 0.08 | 0.08 | 91 | 1009.9 |
| 20260905230013 | 77 | 0 | 0.0 | 0.0 | 0.00 | 0.08 | 0.08 | 91 | 1009.7 |
| 20260905225413 | 78 | 0 | 0.0 | 1.7 | 0.00 | 0.08 | 0.08 | 91 | 1009.7 |
| 20260905224513 | 77 | 0 | 0.0 | 0.0 | 0.00 | 0.08 | 0.08 | 91 | 1009.7 |
| 20260905223613 | 77 | 0 | 0.0 | 0.0 | 0.00 | 0.08 | 0.08 | 91 | 1009.6 |
| 20260905222713 | 77 | 0 | 0.0 | 0.0 | 0.00 | 0.08 | 0.08 | 92 | 1009.7 |
| 20260905221813 | 76 | 0 | 0.0 | 0.0 | 0.00 | 0.08 | 0.08 | 92 | 1010.1 |
| 20260905220913 | 76 | 0 | 0.0 | 0.0 | 0.00 | 0.08 | 0.08 | 92 | 1010.4 |
| 20260905220013 | 76 | 0 | 0.0 | 0.0 | 0.00 | 0.08 | 0.08 | 92 | 1010.4 |
| 20260905215413 | 76 | 0 | 0.0 | 0.0 | 0.00 | 0.08 | 0.08 | 92 | 1010.4 |
| 20260905214513 | 76 | 0 | 0.0 | 0.0 | 0.00 | 0.08 | 0.08 | 92 | 1010.0 |
| 20260905213613 | 76 | 0 | 0.0 | 0.0 | 0.00 | 0.08 | 0.08 | 92 | 1009.9 |
| 20260905212734 | 76 | 0 | 0.0 | 0.0 | 0.00 | 0.08 | 0.08 | 92 | 1009.9 |
| 20260905211813 | 76 | 0 | 0.0 | 0.0 | 0.00 | 0.08 | 0.08 | 92 | 1009.8 |
| 20260905210913 | 76 | 0 | 0.0 | 0.0 | 0.00 | 0.08 | 0.08 | 91 | 1009.8 |
| 20260905210013 | 76 | 0 | 0.0 | 1.7 | 0.02 | 0.08 | 0.08 | 92 | 1009.7 |
| 20260905205413 | 76 | 0 | 0.0 | 1.7 | 0.08 | 0.08 | 0.08 | 91 | 1009.7 |
| 20260905204513 | 76 | 0 | 0.0 | 0.0 | 0.08 | 0.08 | 0.08 | 90 | 1009.3 |
| 20260905203613 | 77 | 0 | 0.0 | 1.7 | 0.08 | 0.08 | 0.08 | 90 | 1009.6 |
| 20260905202713 | 77 | 0 | 0.0 | 1.7 | 0.08 | 0.08 | 0.08 | 88 | 1009.7 |
| 20260905201813 | 78 | 0 | 0.0 | 1.7 | 0.08 | 0.08 | 0.08 | 87 | 1009.7 |
| 20260905200913 | 79 | 0 | 0.0 | 1.7 | 0.08 | 0.08 | 0.08 | 84 | 1009.6 |
| 20260905200013 | 82 | 77 | 2.6 | 8.7 | 0.06 | 0.06 | 0.06 | 77 | 1010.0 |
| 20260905195434 | 83 | 74 | 2.6 | 8.7 | 0.00 | 0.00 | 0.00 | 69 | 1011.1 |
| 20260905194513 | 84 | 67 | 2.6 | 8.7 | 0.00 | 0.00 | 0.00 | 68 | 1011.1 |
| 20260905193634 | 85 | 72 | 5.2 | 13.9 | 0.00 | 0.00 | 0.00 | 67 | 1010.6 |
| 20260905192713 | 87 | 70 | 7.8 | 24.3 | 0.00 | 0.00 | 0.00 | 63 | 1010.9 |
| 20260905191813 | 93 | 63 | 2.6 | 24.3 | 0.00 | 0.00 | 0.00 | 53 | 1010.3 |
| 20260905190912 | 97 | 0 | 0.0 | 1.7 | 0.00 | 0.00 | 0.00 | 50 | 1009.5 |
| 20260905190034 | 98 | 0 | 0.0 | 3.5 | 0.00 | 0.00 | 0.00 | 48 | 1009.4 |
| 20260905185434 | 99 | 0 | 0.0 | 7.0 | 0.00 | 0.00 | 0.00 | 48 | 1009.2 |
| 20260905184513 | 100 | 0 | 0.0 | 3.5 | 0.00 | 0.00 | 0.00 | 48 | 1009.2 |
| 20260905183634 | 100 | 237 | 2.6 | 7.0 | 0.00 | 0.00 | 0.00 | 46 | 1009.3 |
| 20260905182713 | 101 | 203 | 2.6 | 8.7 | 0.00 | 0.00 | 0.00 | 46 | 1009.4 |
| 20260905181813 | 101 | 236 | 2.6 | 8.7 | 0.00 | 0.00 | 0.00 | 47 | 1009.7 |
| 20260905180913 | 101 | 239 | 2.6 | 5.2 | 0.00 | 0.00 | 0.00 | 48 | 1009.8 |
| 20260905180013 | 100 | 239 | 2.6 | 8.7 | 0.00 | 0.00 | 0.00 | 48 | 1010.1 |
| 20260905175413 | 100 | 185 | 2.6 | 7.0 | 0.00 | 0.00 | 0.00 | 50 | 1010.2 |
| 20260905174512 | 100 | 223 | 2.6 | 5.2 | 0.00 | 0.00 | 0.00 | 48 | 1010.5 |
| 20260905173612 | 101 | 250 | 2.6 | 8.7 | 0.00 | 0.00 | 0.00 | 48 | 1010.8 |
| 20260905172713 | 100 | 231 | 2.6 | 5.2 | 0.00 | 0.00 | 0.00 | 48 | 1011.0 |
| 20260905171833 | 100 | 74 | 2.6 | 7.0 | 0.00 | 0.00 | 0.00 | 48 | 1011.0 |
| 20260905170913 | 100 | 0 | 0.0 | 5.2 | 0.00 | 0.00 | 0.00 | 51 | 1011.2 |
| 20260905170033 | 100 | 0 | 0.0 | 3.5 | 0.00 | 0.00 | 0.00 | 49 | 1011.4 |
| 20260905165413 | 100 | 0 | 0.0 | 3.5 | 0.00 | 0.00 | 0.00 | 49 | 1011.5 |
| 20260905164513 | 100 | 0 | 0.0 | 3.5 | 0.00 | 0.00 | 0.00 | 49 | 1011.6 |
| 20260905163612 | 98 | 0 | 0.0 | 5.2 | 0.00 | 0.00 | 0.00 | 52 | 1011.6 |
| 20260905162712 | 98 | 0 | 0.0 | 7.0 | 0.00 | 0.00 | 0.00 | 50 | 1011.7 |
| 20260905161813 | 98 | 0 | 0.0 | 3.5 | 0.00 | 0.00 | 0.00 | 54 | 1011.8 |
| 20260905160913 | 97 | 0 | 0.0 | 5.2 | 0.00 | 0.00 | 0.00 | 53 | 1012.0 |
| 20260905160013 | 97 | 0 | 0.0 | 3.5 | 0.00 | 0.00 | 0.00 | 55 | 1012.1 |
| 20260905155413 | 97 | 0 | 0.0 | 5.2 | 0.00 | 0.00 | 0.00 | 54 | 1012.2 |
| 20260905154512 | 96 | 0 | 0.0 | 5.2 | 0.00 | 0.00 | 0.00 | 57 | 1012.4 |
| 20260905153612 | 95 | 0 | 0.0 | 3.5 | 0.00 | 0.00 | 0.00 | 58 | 1012.5 |
| 20260905152713 | 94 | 0 | 0.0 | 3.5 | 0.00 | 0.00 | 0.00 | 58 | 1012.7 |
| 20260905151812 | 94 | 0 | 0.0 | 5.2 | 0.00 | 0.00 | 0.00 | 59 | 1012.7 |
| 20260905150913 | 93 | 0 | 0.0 | 3.5 | 0.00 | 0.00 | 0.00 | 62 | 1012.7 |
| 20260905150033 | 92 | 0 | 0.0 | 3.5 | 0.00 | 0.00 | 0.00 | 61 | 1012.6 |
| 20260905145434 | 92 | 225 | 2.6 | 5.2 | 0.00 | 0.00 | 0.00 | 64 | 1012.7 |
| 20260905144534 | 92 | 0 | 0.0 | 3.5 | 0.00 | 0.00 | 0.00 | 64 | 1012.8 |
| 20260905143633 | 91 | 0 | 0.0 | 3.5 | 0.00 | 0.00 | 0.00 | 64 | 1012.7 |
| 20260905142712 | 90 | 0 | 0.0 | 3.5 | 0.00 | 0.00 | 0.00 | 66 | 1012.7 |
| 20260905141812 | 89 | 0 | 0.0 | 1.7 | 0.00 | 0.00 | 0.00 | 67 | 1012.7 |
| 20260905140912 | 89 | 0 | 0.0 | 1.7 | 0.00 | 0.00 | 0.00 | 67 | 1012.6 |
| 20260905140012 | 88 | 0 | 0.0 | 1.7 | 0.00 | 0.00 | 0.00 | 69 | 1012.6 |
| 20260905135412 | 88 | 0 | 0.0 | 1.7 | 0.00 | 0.00 | 0.00 | 70 | 1012.5 |
| 20260905134512 | 87 | 0 | 0.0 | 1.7 | 0.00 | 0.00 | 0.00 | 70 | 1012.6 |
| 20260905133612 | 86 | 0 | 0.0 | 3.5 | 0.00 | 0.00 | 0.00 | 74 | 1012.6 |
| 20260905132712 | 85 | 0 | 0.0 | 1.7 | 0.00 | 0.00 | 0.00 | 76 | 1012.6 |
| 20260905131833 | 84 | 0 | 0.0 | 3.5 | 0.00 | 0.00 | 0.00 | 77 | 1012.6 |
| 20260905130933 | 83 | 0 | 0.0 | 1.7 | 0.00 | 0.00 | 0.00 | 79 | 1012.6 |
| 20260905130012 | 82 | 0 | 0.0 | 1.7 | 0.00 | 0.00 | 0.00 | 82 | 1012.6 |
| 20260905125412 | 82 | 0 | 0.0 | 0.0 | 0.00 | 0.00 | 0.00 | 82 | 1012.7 |